Location: Doverdale
(52.2833°N, 2.2000°W)
Time: 03:41:43
(UTC+00:00)

Cosmos 44 Rocket - Pass Details

Date: 29 October 2020
Orbit: 642 x 748 km, 65.1° (Epoch: 27 November)

Event Time Altitude Azimuth Distance (km) Brightness Sun altitude
Rises 19:53:34 0° 227° (SW) 3,004 7.0 -29.2°
Reaches altitude 10° 19:55:51 10° 229° (SW) 2,109 6.1 -29.6°
Enters shadow 19:58:43 36° 237° (WSW) 1,079 4.5 -30.0°
